Location: Ostrava
(49.8330°N, 18.2830°E)
Time: 17:38:29
(UTC+02:00)

NOAA 19 - Visible Passes

Search period start: 03 July 2015 00:00
Search period end: 13 July 2015 00:00
Orbit: 842 x 863 km, 99.0° (Epoch: 02 July)

Date Brightness Start Highest point End Pass type
(mag) Time Alt. Az. Time Alt. Az. Time Alt. Az.
03 Jul 7.5 01:49:50 10° ENE 01:52:09 13° E 01:54:45 10° ESE visible
03 Jul 5.3 03:28:26 10° NNE 03:33:56 78° ESE 03:39:24 10° SSW visible
04 Jul 7.8 01:40:16 10° ENE 01:40:40 10° E 01:41:26 10° E visible
04 Jul 5.5 03:17:12 10° NNE 03:22:39 64° ESE 03:28:05 10° S visible
05 Jul 5.8 03:06:00 10° NNE 03:11:21 53° E 03:16:41 10° S visible
06 Jul 6.1 02:54:50 10° NNE 03:00:02 43° E 03:05:14 10° S visible
07 Jul 6.4 02:43:43 10° NNE 02:48:41 35° E 02:53:41 10° SSE visible
08 Jul 6.7 02:32:38 10° NE 02:37:19 29° E 02:42:04 10° SSE visible
09 Jul 7.0 02:21:37 10° NE 02:25:55 24° E 02:30:20 10° SE visible
09 Jul 5.4 04:01:43 10° N 04:07:07 61° WNW 04:12:29 10° SSW visible
10 Jul 7.3 02:10:41 10° NE 02:14:31 20° E 02:18:29 10° SE visible
10 Jul 5.3 03:50:25 10° NNE 03:55:53 74° WNW 04:01:21 10° SSW visible
11 Jul 7.5 01:59:55 10° NE 02:03:04 16° E 02:06:27 10° SE visible
11 Jul 5.2 03:39:09 10° NNE 03:44:39 88° WNW 03:50:08 10° SSW visible
12 Jul 7.6 01:49:23 10° ENE 01:51:36 13° E 01:54:07 10° ESE visible
12 Jul 5.3 03:27:53 10° NNE 03:33:23 77° ESE 03:38:52 10° S visible
